This is the latest recevied weather packets stored in our database for station/object EA2MKR. If no packets are shown the sender has not sent any weather packets the latest 10 day(s).
| Time | Temp. | Humidity | Pressure | Rain* | Wind** | Luminosity | Snow |
|---|---|---|---|---|---|---|---|
| 1788593980 | 21.11° C | 70% | 960.7 hPa | 0 mm | - | - | - |
| 1788593680 | 20.56° C | 72% | 960.5 hPa | 0 mm | - | - | - |
| 1788593473 | 20° C | 74% | 960.4 hPa | 0 mm | - | - | - |
| 1788593079 | 19.44° C | 74% | 960.4 hPa | 0 mm | - | - | - |
| 1788592780 | 18.89° C | 76% | 960.3 hPa | 0 mm | - | - | - |
| 1788592573 | 18.33° C | 78% | 960.5 hPa | 0 mm | - | - | - |
| 1788592273 | 18.33° C | 80% | 960.5 hPa | 0 mm | - | - | - |
| 1788591973 | 18.33° C | 80% | 960.4 hPa | 0 mm | - | - | - |
| 1788591580 | 18.33° C | 80% | 960.3 hPa | 0 mm | - | - | - |
| 1788591372 | 18.33° C | 80% | 960.3 hPa | 0 mm | - | - | - |
| 1788590980 | 17.78° C | 81% | 960.2 hPa | 0 mm | - | - | - |
| 1788590680 | 17.78° C | 82% | 960.3 hPa | 0 mm | - | - | - |
| 1788590379 | 17.22° C | 82% | 960.3 hPa | 0 mm | - | - | - |
| 1788590078 | 17.22° C | 82% | 960.3 hPa | 0 mm | - | - | - |
| 1788589778 | 17.22° C | 82% | 960.4 hPa | 0 mm | - | - | - |
| 1788589479 | 16.67° C | 82% | 960.4 hPa | 0 mm | - | - | - |
| 1788589178 | 16.67° C | 82% | 960.4 hPa | 0 mm | - | - | - |
| 1788588878 | 16.67° C | 82% | 960.4 hPa | 0 mm | - | - | - |
| 1788588578 | 17.22° C | 82% | 960.5 hPa | 0 mm | - | - | - |
| 1788588278 | 17.22° C | 82% | 960.4 hPa | 0 mm | - | - | - |
| 1788587978 | 17.22° C | 81% | 960.4 hPa | 0 mm | - | - | - |
| 1788587773 | 17.22° C | 80% | 960.5 hPa | 0 mm | - | - | - |
| 1788587378 | 17.22° C | 79% | 960.5 hPa | 0 mm | - | - | - |
| 1788587078 | 17.78° C | 79% | 960.4 hPa | 0 mm | - | - | - |
| 1788586778 | 17.78° C | 79% | 960.3 hPa | 0 mm | - | - | - |
* Rain latest hour (hover to see other rain measurements)
** Current wind speed in m/s (hover to see current wind gust speed)